User: anonymous   Login
Location: Unspecified
(0.0000°N, 0.0000°E)
Time: 17:57:06
(UTC+00:00)
Language:

A-11 Canister half - Orbit

View from above orbital plane
View from above orbital plane
View from above satellite
View from above satellite

Ground track
Ground track

The orbit data is extracted from the following two-line orbital elements,

1    51U 60009C   20018.21437429 -.00000185  00000-0 -95625-3 0  9990
2    51  47.2132  95.3109 0104624  74.7551 286.4776 12.18271715645640
Epoch (UTC): 18 January 2020 05:08:41
Eccentricity: 0.0104624
inclination: 47.2132°
perigee height: 1516 km
apogee height: 1683 km
right ascension of ascending node: 95.3109°
argument of perigee: 74.7551°
revolutions per day: 12.18271715
mean anomaly at epoch: 286.4776°
orbit number at epoch: 64564

The dashed part of the orbit path shows where the satellite is in the earth's shadow,  

DLR